Stanley, ID

4:15 PM MDT on May 24, 2017 (GMT -0600)
Stanley

Weather History for KSNT - March, 2014

Change the Weather History Date:

Sunday, March 16, 2014

  Actual Average Record
Temperature  
Mean Temperature 34 °F 27 °F  
Max Temperature 52 °F 42 °F 58 °F (1994)
Min Temperature 15 °F 13 °F -20 °F (1924)
Degree Days  
Heating Degree Days 31 38  
Month to date heating degree days 554 639  
Since 1 July heating degree days 7722 8173  
Cooling Degree Days 0 0  
Month to date cooling degree days 0 0  
Year to date cooling degree days 0 0  
Moisture  
Dew Point 15 °F    
Average Humidity 52    
Maximum Humidity 88    
Minimum Humidity 16    
Precipitation  
Precipitation 0.00 in 0.07 in 0.85 in (2012)
Month to date precipitation 1.83 0.81  
Year to date precipitation 8.37 4.12  
Sea Level Pressure  
Sea Level Pressure 30.20 in    
Wind  
Wind Speed 5 mph (SE)    
Max Wind Speed 17 mph    
Max Gust Speed 29 mph    
T = Trace of Precipitation, MM = Missing Value Source: NWS Daily Summary

Daily Weather History Graph

Daily Weather History Graph

Search for Another Location

Airport or City:

Trip Planner

Search our weather history database for the weather conditions in past years. The results will help you decide how hot, cold, wet, or windy it might be!

Date:

Astronomy

Mar. 16, 2014 Rise Set
Actual Time 7:50 AM MDT 7:47 PM MDT
Civil Twilight 7:21 AM MDT 8:16 PM MDT
Nautical Twilight 6:47 AM MDT 8:49 PM MDT
Astronomical Twilight 6:13 AM MDT 9:24 PM MDT
Moon 8:10 PM MDT (3/16) 7:34 AM MDT (3/16)
Length of Visible Light 12h 54m
Length of Day
11h 57m
Full, 100% of the Moon is Illuminated
Mar 16
Full
Mar 23
Last Quarter
Mar 30
New
Apr 7
First Quarter
Apr 15
Full

Hourly Weather History & Observations

Time (MDT) Temp. Windchill Dew Point Humidity Pressure Visibility Wind Dir Wind Speed Gust Speed Precip Events Conditions
12:51 AM 26.1 °F 21.9 °F 17.1 °F 69% 30.42 in - Variable 3.5 mph - N/A   Unknown
1:51 AM 24.1 °F 17.0 °F 16.0 °F 71% 30.40 in - SSE 5.8 mph - N/A   Unknown
2:51 AM 21.0 °F - 16.0 °F 81% 30.41 in - Calm Calm - N/A   Unknown
3:51 AM 21.0 °F 14.6 °F 16.0 °F 81% 30.38 in - Variable 4.6 mph - N/A   Unknown
4:51 AM 18.0 °F - 14.0 °F 84% 30.38 in - Calm Calm - N/A   Unknown
5:51 AM 17.1 °F - 12.9 °F 84% 30.36 in - Calm Calm - N/A   Unknown
6:51 AM 16.0 °F 10.4 °F 12.9 °F 88% 30.36 in - SSE 3.5 mph - N/A   Unknown
7:51 AM 17.1 °F - 14.0 °F 88% 30.36 in - Calm Calm - N/A   Unknown
8:51 AM 17.1 °F - 14.0 °F 88% 30.39 in - Calm Calm - N/A   Unknown
9:51 AM 23.0 °F 13.9 °F 16.0 °F 74% 30.36 in - East 8.1 mph - N/A   Unknown
10:51 AM 26.1 °F 20.5 °F 17.1 °F 69% 30.33 in - Variable 4.6 mph - N/A   Unknown
11:51 AM 34.0 °F 31.0 °F 19.0 °F 54% 30.28 in - Variable 3.5 mph - N/A   Unknown
12:51 PM 46.9 °F - 12.9 °F 25% 30.19 in - North 3.5 mph - N/A   Unknown
1:51 PM 50.0 °F - 10.9 °F 21% 30.16 in - NNW 3.5 mph - N/A   Unknown
2:51 PM 50.0 °F - 7.0 °F 18% 30.13 in - Variable 6.9 mph - N/A   Unknown
3:51 PM 50.0 °F - 7.0 °F 18% 30.10 in - SSW 10.4 mph 29.9 mph N/A   Unknown
4:51 PM 48.9 °F - 10.0 °F 21% 30.09 in - South 10.4 mph 17.3 mph N/A   Unknown
5:51 PM 48.0 °F - 9.0 °F 21% 30.06 in - Variable 6.9 mph 18.4 mph N/A   Unknown
6:51 PM 46.9 °F - 12.9 °F 25% 30.03 in - North - - N/A   Unknown
7:51 PM 45.0 °F 41.2 °F 14.0 °F 29% 29.99 in - SSE 6.9 mph - N/A   Unknown
8:51 PM 41.0 °F 36.4 °F 19.0 °F 41% 29.97 in - SE 6.9 mph - N/A   Unknown
9:51 PM 37.9 °F 32.7 °F 21.0 °F 51% 29.91 in - ESE 6.9 mph - N/A   Unknown
10:51 PM 39.0 °F 34.0 °F 19.9 °F 46% 29.84 in - Variable 6.9 mph - N/A   Unknown
11:51 PM 39.0 °F 35.7 °F 21.0 °F 49% 29.78 in - Variable 4.6 mph - N/A   Unknown